Погода в Лынге

Россия / Удмуртская Республика     57°17′46″N   53°01′42″E
темп.,
°C
ветер,
м/с
пор.,
м/с
влажн.,
%
обл.,
%
осадки,
мм/ч
давл.,
гПа
погр.,
м
18 апреля, вс
вс1801:00+2ссз22835 0.0 102438
04:00+1ссз24875 0.0 102466
07:00+3ссз29801 0.0 1024252
10:00+5св5672100 0.0 10251015
13:00+6св564535 0.0 10261411
16:00+5св57405 0.0 10281551
19:00+3св49523 0.0 1029795
22:00+1всв512636 0.0 1031610
19 апреля, пн
пн1901:00−1всв411625 0.0 1032481
04:00−2всв310615 0.0 1034453
07:00−1всв410470 0.0 1034933
10:00+2в69280 0.0 10351424
13:00+5в57260 0.0 10341627
16:00+5в56290 0.0 10341640
19:00+3всв26450 0.0 1034179
22:00−1всв25600 0.0 1036103
20 апреля, вт
вт2001:00−2всв25640 0.0 103799
04:00−2всв23590 0.0 103767
07:00+1в23470 0.0 1037190
10:00+5вюв22290 0.0 10371064
13:00+8юв12270 0.0 10361351
16:00+9вюв11270 0.0 10341325
19:00+5в11430 0.0 103410
22:00+2вюв11510 0.0 103410
21 апреля, ср
ср2101:00+1в11530 0.0 103410
04:000юв11550 0.0 103410
07:00+3вюв24490 0.0 1034138
10:00+8юв45355 0.0 1033821
13:00+11юв46308 0.0 10321116
16:00+12ююв573074 0.0 10301340
19:00+9ююв494267 0.0 1030364
22:00+5юв3115987 0.0 1031266
22 апреля, чт
чт2201:00+4юв21062100 0.0 1031228
04:00+3ююв31164100 0.0 1031267
07:00+5ююв31155100 0.0 1031475
10:00+8ю41048100 0.0 1031848
13:00+10ю5944100 0.0 10311299
16:00+6ю51183100 0.2 1033879
19:00+6юз397294 0.1 1032500
22:00+4ююз129285 0.1 103375